TimeHST,TemperatureF,Dew PointF,Humidity,Sea Level PressureIn,VisibilityMPH,Wind Direction,Wind SpeedMPH,Gust SpeedMPH,PrecipitationIn,Events,Conditions,WindDirDegrees,DateUTC
12:58 AM,70.9,66.9,87,29.95,10.0,West,2.3,-,N/A,,Scattered Clouds,270,2013-11-08 10:58:00
1:58 AM,69.6,66.4,89,29.94,10.0,NW,3.5,-,N/A,,Scattered Clouds,310,2013-11-08 11:58:00
2:58 AM,68.7,65.7,90,29.94,10.0,NW,2.3,-,N/A,,Scattered Clouds,310,2013-11-08 12:58:00
3:58 AM,69.6,66.6,90,29.94,10.0,Calm,Calm,-,N/A,,Scattered Clouds,0,2013-11-08 13:58:00
4:58 AM,69.1,66.4,91,29.94,10.0,West,2.3,-,N/A,,Partly Cloudy,280,2013-11-08 14:58:00
5:58 AM,68.2,65.3,90,29.95,10.0,NW,4.6,-,N/A,,Scattered Clouds,310,2013-11-08 15:58:00
6:58 AM,69.1,65.7,89,29.97,10.0,North,1.2,-,N/A,,Partly Cloudy,360,2013-11-08 16:58:00
7:58 AM,70.5,66.9,88,29.98,10.0,NW,4.6,-,N/A,,Clear,320,2013-11-08 17:58:00
8:58 AM,73.9,68.2,82,29.99,10.0,NNW,2.3,-,N/A,,Clear,340,2013-11-08 18:58:00
9:58 AM,75.9,67.3,74,29.98,10.0,Variable,2.3,-,N/A,,Clear,0,2013-11-08 19:58:00
10:58 AM,78.4,67.8,70,29.97,10.0,East,5.8,-,N/A,,Partly Cloudy,80,2013-11-08 20:58:00
11:33 AM,78.8,68.0,69,29.98,10.0,NNE,3.5,-,N/A,,Mostly Cloudy,30,2013-11-08 21:33:00
11:58 AM,78.8,67.6,68,29.93,10.0,Variable,2.3,-,N/A,,Overcast,0,2013-11-08 21:58:00
12:58 PM,81.3,65.1,58,29.90,10.0,Variable,3.5,-,N/A,,Partly Cloudy,0,2013-11-08 22:58:00
1:58 PM,80.6,68.4,66,29.88,10.0,North,6.9,-,N/A,,Mostly Cloudy,360,2013-11-08 23:58:00
2:03 PM,80.6,68.0,65,29.90,10.0,NNE,4.6,-,N/A,,Overcast,20,2013-11-09 00:03:00
2:11 PM,80.6,68.0,65,29.90,10.0,ENE,4.6,-,N/A,Rain,Light Rain,70,2013-11-09 00:11:00
2:26 PM,77.0,68.0,74,29.91,1.5,SE,4.6,-,N/A,Rain,Heavy Rain,140,2013-11-09 00:26:00
2:36 PM,75.2,68.0,78,29.91,1.0,Calm,Calm,-,N/A,Rain,Heavy Rain,0,2013-11-09 00:36:00
2:41 PM,73.4,68.0,83,29.91,1.0,Calm,Calm,-,N/A,Rain,Heavy Rain,0,2013-11-09 00:41:00
2:46 PM,73.4,68.0,83,29.91,1.8,Calm,Calm,-,N/A,Rain,Light Rain,0,2013-11-09 00:46:00
2:51 PM,73.4,69.8,88,29.91,4.0,SSW,3.5,-,N/A,Rain,Light Rain,210,2013-11-09 00:51:00
2:56 PM,73.4,69.8,88,29.91,7.0,Variable,3.5,-,N/A,Rain,Rain,0,2013-11-09 00:56:00
2:58 PM,73.8,69.3,86,29.89,5.0,Variable,3.5,-,0.34,Rain,Rain,0,2013-11-09 00:58:00
3:03 PM,73.4,69.8,88,29.91,2.5,East,8.1,-,N/A,Rain,Heavy Rain,90,2013-11-09 01:03:00
3:13 PM,73.4,69.8,88,29.91,4.0,East,3.5,-,N/A,Rain,Heavy Rain,80,2013-11-09 01:13:00
3:58 PM,73.9,70.3,88,29.89,10.0,WNW,4.6,-,0.17,,Light Drizzle,290,2013-11-09 01:58:00
4:02 PM,73.4,69.8,88,29.90,10.0,WNW,4.6,-,N/A,,Mostly Cloudy,290,2013-11-09 02:02:00
4:58 PM,75.6,69.4,81,29.89,10.0,ENE,5.8,-,0.00,,Scattered Clouds,70,2013-11-09 02:58:00
5:58 PM,74.7,68.5,81,29.92,10.0,NNE,5.8,-,N/A,,Mostly Cloudy,30,2013-11-09 03:58:00
6:58 PM,73.8,68.0,82,29.94,10.0,NW,2.3,-,N/A,,Mostly Cloudy,310,2013-11-09 04:58:00
7:03 PM,73.4,68.0,83,29.96,10.0,NE,2.3,-,N/A,,Overcast,50,2013-11-09 05:03:00
7:22 PM,73.4,68.0,83,29.96,9.0,East,5.8,-,N/A,Rain,Rain,80,2013-11-09 05:22:00
7:27 PM,73.4,68.0,83,29.96,9.0,ENE,4.6,-,N/A,Rain,Light Rain,70,2013-11-09 05:27:00
7:42 PM,71.6,68.0,88,29.96,10.0,NNE,4.6,-,N/A,,Scattered Clouds,20,2013-11-09 05:42:00
7:58 PM,72.1,67.5,85,29.95,10.0,North,4.6,-,0.00,,Scattered Clouds,10,2013-11-09 05:58:00
8:36 PM,71.6,68.0,88,29.98,10.0,Variable,2.3,-,N/A,,Light Drizzle,0,2013-11-09 06:36:00
8:58 PM,71.2,68.2,90,29.96,7.0,WSW,3.5,-,0.02,Rain,Light Rain,250,2013-11-09 06:58:00
9:30 PM,69.8,68.0,94,29.97,10.0,WSW,2.3,-,N/A,,Clear,250,2013-11-09 07:30:00
9:58 PM,70.9,68.0,91,29.94,10.0,WNW,3.5,-,0.01,,Clear,300,2013-11-09 07:58:00
10:58 PM,69.8,67.1,91,29.94,10.0,Variable,1.2,-,N/A,,Scattered Clouds,0,2013-11-09 08:58:00
11:58 PM,70.7,66.9,88,29.91,10.0,SSE,3.5,-,N/A,,Partly Cloudy,150,2013-11-09 09:58:00